FALCON 9 R/B, 42819

Orbit data source: Space-Track

FALCON 9 R/B, 42819 is space debris in HEO originally from a launch on Wed, 05 Jul 2017 UTC launched from the Air Force Eastern Test Range (AFETR). Debris objects in space refer to the collection of defunct objects orbiting the Earth. Examples of debris include non-operational satellites, rocket bodies, and fragments generated from explosions, collisions, or faulty payload assembly.

Loading next visibility...
Identifier
42819, 2017-041B
Orbit
HEO
Country
Flag of USUS
Related business
Manufacturer
SpaceX
Mission
Spacecraft
Bus & Motor
F9ST2, Unknown motor
Mass
~4,000 kg wet, ~4,000 kg dry
Launch date (UTC)
2017-07-05 (9 years ago)
Launch vehicle
Unknown
Launch site
Air Force Eastern Test Range (AFETR)
Object type
Payload
Rocket body
Debris
Shape & HBR
Cyl, 7.8 m
Radar Cross Section
39.980 m², Large (>1 m²)

Expand to show TLE details & history
Last TLE update: 1 day ago

TLE from 1 day ago
0 FALCON 9 R/B
1 42819U 17041B   26061.92207965  .00000513  00000-0  44812-3 0  9993
2 42819  25.4391 215.3905 7455712  17.9597 358.0388  2.04393633 61201
Epoch: 2026-03-02T22:07Z
TLE epoch observation values (Epoch: 2026-03-02T22:07:47.681Z)
Latitude
0.00078°
Longitude
82.68932°
Altitude
459.657 km
Speed
10.069 km/s
True Right ascension
14h 21m 23s
True Declination
0° 00' 03"
Sunlit
Object was in full shadow at epoch
Visualization orbit readout
Latitude
Unknown
Longitude
Unknown
Altitude
Unknown
Speed
Unknown
Apparent Right ascension
Unknown
Apparent Declination
Unknown
Sunlit
N/A
Visualization observer readout
Local Sidereal Time
02:25:50
Azimuth
Unknown
Elevation
Unknown
Doppler factor
Unknown
Orbital elements
Apogee altitude
39,411.027 km
Perigee altitude
295.943 km
Semi-major axis
26,231.622 km
Eccentricity
0.74557
Inclination
25.4391°
RAAN
215.3905°
Arg. of periapsis
17.9597°
True anomaly
340.15461°
Mean anomaly
358.0388°
Eccentric anomaly
352.35809°
Mean motion
0.51086 °/min
Orbital period
704.69 mins
BSTAR
0.00044812
Loading maneuver chart data...
Computing Atmospheric mass density...
Loading historical data...
Loading historical data...
Loading historical data...
Loading historical data...
Loading historical data...
Loading historical data...
Loading historical data...
Other satellites on launch #41 in the year 2017 (2017-07-05 UTC)

Documentation

Showing up to 5 results
|